| time (UTC) | temp C | wind direction | speed KPH | gust KPH | rain 1hr cm | rain 24hr cm | rain mn cm | humidity % | barometer mb |
| 20260510224546 | 27 | 234 | 0.0 | 4.8 | 0.00 | 0.00 | 0.00 | 28 | 1014.8 |
| 20260510223044 | 28 | 174 | 1.6 | 3.2 | 0.00 | 0.00 | 0.00 | 26 | 1014.8 |
| 20260510221548 | 28 | 98 | 1.6 | 8.0 | 0.00 | 0.00 | 0.00 | 28 | 1014.8 |
| 20260510220049 | 28 | 327 | 1.6 | 6.4 | 0.00 | 0.00 | 0.00 | 27 | 1014.6 |
| 20260510214547 | 28 | 182 | 0.0 | 6.4 | 0.00 | 0.00 | 0.00 | 26 | 1014.6 |
| 20260510213046 | 28 | 245 | 1.6 | 8.0 | 0.00 | 0.00 | 0.00 | 29 | 1014.7 |
| 20260510211543 | 28 | 219 | 1.6 | 6.4 | 0.00 | 0.00 | 0.00 | 28 | 1014.7 |
| 20260510210050 | 28 | 237 | 0.0 | 6.4 | 0.00 | 0.00 | 0.00 | 29 | 1014.6 |
| 20260510204549 | 28 | 139 | 1.6 | 6.4 | 0.00 | 0.00 | 0.00 | 29 | 1014.8 |
| 20260510203046 | 28 | 0 | 0.0 | 9.7 | 0.00 | 0.00 | 0.00 | 29 | 1014.7 |
| 20260510201543 | 28 | 205 | 4.8 | 11.3 | 0.00 | 0.00 | 0.00 | 29 | 1014.9 |
| 20260510200043 | 28 | 88 | 0.0 | 3.2 | 0.00 | 0.00 | 0.00 | 28 | 1015.0 |
| 20260510194539 | 29 | 276 | 1.6 | 6.4 | 0.00 | 0.00 | 0.00 | 28 | 1015.2 |
| 20260510193055 | 28 | 131 | 3.2 | 6.4 | 0.00 | 0.00 | 0.00 | 30 | 1015.0 |
| 20260510191541 | 28 | 225 | 1.6 | 6.4 | 0.00 | 0.00 | 0.00 | 29 | 1015.3 |
| 20260510190045 | 27 | 98 | 3.2 | 9.7 | 0.00 | 0.00 | 0.00 | 31 | 1015.3 |
| 20260510184547 | 27 | 130 | 1.6 | 9.7 | 0.00 | 0.00 | 0.00 | 27 | 1015.5 |
| 20260510183050 | 28 | 0 | 0.0 | 9.7 | 0.00 | 0.00 | 0.00 | 36 | 1015.5 |
| 20260510181542 | 27 | 49 | 3.2 | 8.0 | 0.00 | 0.00 | 0.00 | 30 | 1015.6 |
| 20260510180048 | 28 | 154 | 1.6 | 6.4 | 0.00 | 0.00 | 0.00 | 30 | 1015.7 |
| 20260510174547 | 27 | 0 | 0.0 | 6.4 | 0.00 | 0.00 | 0.00 | 32 | 1015.9 |
| 20260510173053 | 27 | 0 | 1.6 | 8.0 | 0.00 | 0.00 | 0.00 | 30 | 1016.0 |
| 20260510171557 | 27 | 198 | 0.0 | 4.8 | 0.00 | 0.00 | 0.00 | 35 | 1016.4 |
| 20260510170100 | 27 | 342 | 0.0 | 6.4 | 0.00 | 0.00 | 0.00 | 34 | 1016.2 |
| 20260510164556 | 27 | 65 | 0.0 | 8.0 | 0.00 | 0.00 | 0.00 | 32 | 1016.3 |
| 20260510163047 | 27 | 330 | 3.2 | 8.0 | 0.00 | 0.00 | 0.00 | 34 | 1016.3 |
| 20260510161551 | 27 | 300 | 0.0 | 6.4 | 0.00 | 0.00 | 0.00 | 35 | 1016.4 |
| 20260510160057 | 27 | 13 | 0.0 | 6.4 | 0.00 | 0.00 | 0.00 | 39 | 1016.4 |
| 20260510154551 | 26 | 0 | 0.0 | 4.8 | 0.00 | 0.00 | 0.00 | 41 | 1016.3 |
| 20260510153040 | 25 | 26 | 0.0 | 6.4 | 0.00 | 0.00 | 0.00 | 41 | 1016.4 |
| 20260510151546 | 25 | 352 | 0.0 | 6.4 | 0.00 | 0.00 | 0.00 | 42 | 1016.4 |
| 20260510150045 | 25 | 0 | 1.6 | 6.4 | 0.00 | 0.00 | 0.00 | 49 | 1016.5 |
| 20260510144544 | 25 | 0 | 0.0 | 3.2 | 0.00 | 0.00 | 0.00 | 52 | 1016.6 |
| 20260510143050 | 23 | 216 | 0.0 | 3.2 | 0.00 | 0.00 | 0.00 | 57 | 1016.6 |
| 20260510141551 | 23 | 31 | 0.0 | 6.4 | 0.00 | 0.00 | 0.00 | 61 | 1016.5 |
| 20260510140048 | 22 | 59 | 0.0 | 3.2 | 0.00 | 0.00 | 0.00 | 64 | 1016.5 |
| 20260510134547 | 22 | 0 | 1.6 | 4.8 | 0.00 | 0.00 | 0.00 | 70 | 1016.4 |
| 20260510133058 | 21 | 9 | 0.0 | 3.2 | 0.00 | 0.00 | 0.00 | 73 | 1016.3 |
| 20260510131602 | 20 | 0 | 0.0 | 1.6 | 0.00 | 0.00 | 0.00 | 83 | 1016.4 |
| 20260510130047 | 17 | 0 | 0.0 | 0.0 | 0.00 | 0.00 | 0.00 | 94 | 1016.4 |
| 20260510124608 | 17 | 0 | 0.0 | 0.0 | 0.00 | 0.00 | 0.00 | 96 | 1016.3 |
| 20260510123049 | 16 | 0 | 0.0 | 0.0 | 0.00 | 0.00 | 0.00 | 96 | 1016.2 |
| 20260510121547 | 14 | 0 | 0.0 | 0.0 | 0.00 | 0.00 | 0.00 | 96 | 1015.9 |
| 20260510120047 | 13 | 0 | 0.0 | 0.0 | 0.00 | 0.00 | 0.00 | 95 | 1015.3 |
| 20260510114545 | 12 | 0 | 0.0 | 0.0 | 0.00 | 0.00 | 0.00 | 95 | 1015.2 |
| 20260510113050 | 12 | 0 | 0.0 | 0.0 | 0.00 | 0.00 | 0.00 | 95 | 1015.2 |
| 20260510111603 | 12 | 0 | 0.0 | 0.0 | 0.00 | 0.00 | 0.00 | 95 | 1015.0 |
| 20260510110042 | 11 | 0 | 0.0 | 0.0 | 0.00 | 0.00 | 0.00 | 94 | 1014.7 |
| 20260510104601 | 11 | 0 | 0.0 | 0.0 | 0.00 | 0.00 | 0.00 | 94 | 1014.4 |
| 20260510103046 | 12 | 0 | 0.0 | 0.0 | 0.00 | 0.00 | 0.00 | 94 | 1014.1 |
| 20260510101545 | 12 | 0 | 0.0 | 0.0 | 0.00 | 0.00 | 0.00 | 94 | 1014.0 |
| 20260510100043 | 12 | 0 | 0.0 | 0.0 | 0.00 | 0.00 | 0.00 | 94 | 1014.0 |
| 20260510094547 | 12 | 0 | 0.0 | 0.0 | 0.00 | 0.00 | 0.00 | 94 | 1013.8 |
| 20260510093049 | 12 | 0 | 0.0 | 1.6 | 0.00 | 0.00 | 0.00 | 94 | 1013.5 |
| 20260510091555 | 12 | 0 | 0.0 | 0.0 | 0.00 | 0.00 | 0.00 | 94 | 1013.4 |
| 20260510090100 | 13 | 0 | 0.0 | 0.0 | 0.00 | 0.00 | 0.00 | 94 | 1013.2 |
| 20260510084554 | 13 | 0 | 0.0 | 0.0 | 0.00 | 0.00 | 0.00 | 94 | 1013.1 |
| 20260510083043 | 13 | 0 | 0.0 | 0.0 | 0.00 | 0.00 | 0.00 | 94 | 1012.9 |
| 20260510081550 | 13 | 0 | 0.0 | 0.0 | 0.00 | 0.00 | 0.00 | 93 | 1012.7 |
| 20260510080042 | 13 | 0 | 0.0 | 0.0 | 0.00 | 0.00 | 0.00 | 94 | 1012.7 |
| 20260510074550 | 13 | 0 | 0.0 | 0.0 | 0.00 | 0.00 | 0.00 | 93 | 1012.7 |
| 20260510073051 | 13 | 0 | 0.0 | 0.0 | 0.00 | 0.00 | 0.00 | 93 | 1012.4 |
| 20260510071545 | 13 | 0 | 0.0 | 0.0 | 0.00 | 0.00 | 0.00 | 93 | 1012.4 |
| 20260510070048 | 14 | 0 | 0.0 | 0.0 | 0.00 | 0.00 | 0.00 | 93 | 1012.4 |
| 20260510064600 | 14 | 0 | 0.0 | 0.0 | 0.00 | 0.00 | 0.00 | 94 | 1012.4 |
| 20260510063052 | 13 | 0 | 0.0 | 1.6 | 0.00 | 0.00 | 0.00 | 93 | 1012.5 |
| 20260510061552 | 14 | 0 | 0.0 | 0.0 | 0.00 | 0.00 | 0.00 | 93 | 1012.3 |
| 20260510060051 | 14 | 0 | 0.0 | 0.0 | 0.00 | 0.00 | 0.00 | 93 | 1012.4 |
| 20260510054546 | 14 | 0 | 0.0 | 0.0 | 0.00 | 0.00 | 0.00 | 93 | 1012.4 |
| 20260510053050 | 14 | 0 | 0.0 | 0.0 | 0.00 | 0.00 | 0.00 | 93 | 1012.5 |
| 20260510051601 | 14 | 0 | 0.0 | 0.0 | 0.00 | 0.00 | 0.00 | 92 | 1012.5 |
| 20260510050049 | 14 | 0 | 0.0 | 0.0 | 0.00 | 0.00 | 0.00 | 92 | 1012.9 |
| 20260510044557 | 15 | 0 | 0.0 | 0.0 | 0.00 | 0.00 | 0.00 | 92 | 1012.8 |
| 20260510043046 | 15 | 0 | 0.0 | 0.0 | 0.00 | 0.00 | 0.00 | 92 | 1012.8 |
| 20260510041550 | 15 | 0 | 0.0 | 0.0 | 0.00 | 0.00 | 0.00 | 92 | 1012.9 |
| 20260510040046 | 15 | 0 | 0.0 | 0.0 | 0.00 | 0.00 | 0.00 | 92 | 1012.8 |
| 20260510034546 | 15 | 0 | 0.0 | 0.0 | 0.00 | 0.00 | 0.00 | 91 | 1012.9 |
| 20260510033042 | 15 | 0 | 0.0 | 0.0 | 0.00 | 0.00 | 0.00 | 91 | 1013.0 |
| 20260510031547 | 15 | 0 | 0.0 | 0.0 | 0.00 | 0.00 | 0.00 | 91 | 1012.9 |
| 20260510030043 | 16 | 0 | 0.0 | 0.0 | 0.00 | 0.00 | 0.00 | 90 | 1012.8 |
| 20260510024551 | 16 | 0 | 0.0 | 0.0 | 0.00 | 0.00 | 0.00 | 90 | 1012.8 |
| 20260510023043 | 16 | 0 | 0.0 | 0.0 | 0.00 | 0.00 | 0.00 | 89 | 1012.7 |
| 20260510021542 | 16 | 0 | 0.0 | 0.0 | 0.00 | 0.00 | 0.00 | 88 | 1012.7 |
| 20260510020040 | 16 | 0 | 0.0 | 0.0 | 0.00 | 0.00 | 0.00 | 88 | 1012.5 |
| 20260510014540 | 17 | 0 | 0.0 | 0.0 | 0.00 | 0.00 | 0.00 | 87 | 1012.4 |
| 20260510013053 | 17 | 0 | 0.0 | 1.6 | 0.00 | 0.00 | 0.00 | 86 | 1012.0 |
| 20260510011546 | 17 | 0 | 0.0 | 0.0 | 0.00 | 0.00 | 0.00 | 84 | 1011.9 |
| 20260510010048 | 18 | 0 | 0.0 | 0.0 | 0.00 | 0.00 | 0.00 | 81 | 1011.7 |
| 20260510004547 | 18 | 0 | 0.0 | 0.0 | 0.00 | 0.00 | 0.00 | 80 | 1011.3 |
| 20260510003057 | 19 | 0 | 0.0 | 3.2 | 0.00 | 0.00 | 0.00 | 79 | 1011.0 |
| 20260510001551 | 20 | 178 | 0.0 | 0.0 | 0.00 | 0.00 | 0.00 | 77 | 1010.8 |
| 20260510000058 | 20 | 162 | 0.0 | 0.0 | 0.00 | 0.00 | 0.00 | 75 | 1010.7 |
| 20260509234602 | 21 | 0 | 0.0 | 1.6 | 0.00 | 0.00 | 0.00 | 73 | 1010.5 |
| 20260509233054 | 21 | 141 | 0.0 | 4.8 | 0.00 | 0.00 | 0.00 | 72 | 1010.6 |
| 20260509231601 | 21 | 246 | 1.6 | 9.7 | 0.00 | 0.00 | 0.00 | 71 | 1010.6 |